EDT,Max TemperatureF,Mean TemperatureF,Min TemperatureF,Max Dew PointF,MeanDew PointF,Min DewpointF,Max Humidity, Mean Humidity, Min Humidity, Max Sea Level PressureIn, Mean Sea Level PressureIn, Min Sea Level PressureIn, Max VisibilityMiles, Mean VisibilityMiles, Min VisibilityMiles, Max Wind SpeedMPH, Mean Wind SpeedMPH, Max Gust SpeedMPH,PrecipitationIn, CloudCover, Events, WindDirDegrees
2013-8-1,82,73,64,72,67,64,100,89,58,30.02,29.91,29.84,10,9,4,10,3,16,0.10,6,Rain-Thunderstorm,215
2013-8-2,84,73,62,66,62,57,100,71,42,30.00,29.96,29.91,10,10,5,15,5,17,0.00,3,,251
2013-8-3,71,66,62,70,64,59,100,89,64,30.00,29.98,29.96,10,8,1,8,2,,0.29,5,Rain,218
2013-8-4,78,68,59,63,59,54,100,75,44,30.07,30.01,29.97,10,8,0,20,4,25,0.01,3,Fog,319
2013-8-5,78,64,51,61,56,52,100,72,39,30.14,30.08,30.03,10,10,10,8,1,,0.00,3,,196
2013-8-6,78,69,60,68,64,61,100,89,65,30.07,30.04,30.01,10,9,2,9,2,,0.23,6,Rain,97
2013-8-7,82,74,66,73,70,66,100,93,70,30.07,30.04,29.99,10,8,3,12,2,,0.08,6,Rain-Thunderstorm,140
2013-8-8,80,74,68,73,71,68,100,93,78,30.04,30.01,29.97,10,7,0,8,3,,0.08,6,Fog-Rain,177
2013-8-9,82,76,71,75,72,70,100,86,70,30.00,29.95,29.92,10,9,5,13,4,20,0.00,6,Rain,249
2013-8-10,82,75,68,72,66,57,100,78,47,30.10,30.06,30.00,10,10,5,6,2,,0.00,2,Rain,317
2013-8-11,86,77,68,70,68,64,100,83,55,30.13,30.08,30.02,10,10,7,9,1,,0.00,4,,142
2013-8-12,86,75,64,70,67,63,100,74,48,30.06,30.01,29.94,10,8,0,13,3,17,0.00,3,Fog,315
2013-8-13,84,75,66,72,68,59,100,85,58,29.92,29.83,29.78,10,9,3,12,4,18,0.31,4,Rain,268
2013-8-14,71,62,53,57,52,48,88,67,50,30.13,30.02,29.89,10,10,10,22,9,29,0.00,3,,318
2013-8-15,73,60,46,55,51,46,100,73,38,30.22,30.16,30.12,10,10,4,6,1,,0.00,2,,118
2013-8-16,78,64,50,59,54,50,100,76,42,30.21,30.17,30.15,10,10,10,8,1,,0.00,3,,114
2013-8-17,77,64,50,61,57,50,100,78,50,30.30,30.25,30.22,10,9,4,10,2,17,0.00,4,,110
2013-8-18,68,64,60,63,61,59,100,94,78,30.28,30.23,30.20,10,10,7,7,1,,0.09,5,Rain,355
2013-8-19,78,68,59,70,64,59,100,93,69,30.20,30.13,30.08,10,8,1,6,1,,0.00,5,,148
2013-8-20,84,72,60,70,64,61,100,80,51,30.21,30.16,30.12,10,7,0,7,1,,0.00,4,Fog,320
2013-8-21,87,74,62,72,67,63,100,84,58,30.22,30.16,30.10,10,9,5,12,2,18,0.01,3,Rain-Thunderstorm,176
2013-8-22,86,77,68,70,66,64,100,77,51,30.12,30.06,29.97,10,10,10,13,5,21,0.00,3,Rain,260
2013-8-23,71,65,59,68,65,59,100,94,73,30.16,30.06,29.98,10,8,2,7,2,,0.47,4,Rain-Thunderstorm,358
2013-8-24,78,66,53,63,58,54,100,82,42,30.35,30.27,30.16,10,8,0,6,1,,0.00,3,Fog,76
2013-8-25,80,66,53,64,59,54,100,79,48,30.42,30.35,30.28,10,10,2,8,2,,0.00,2,,166
2013-8-26,86,74,62,64,62,59,94,72,45,30.30,30.18,30.05,10,10,5,10,6,,0.00,2,,228
2013-8-27,84,76,68,70,67,63,88,74,62,30.04,29.98,29.93,10,9,7,14,6,20,0.00,4,Rain,257
2013-8-28,75,72,69,73,71,68,100,97,83,29.96,29.91,29.84,10,5,1,8,2,,0.24,6,Rain-Thunderstorm,215
2013-8-29,82,75,66,72,70,66,100,90,62,30.05,29.99,29.88,10,6,2,6,2,,0.00,6,,34
2013-8-30,86,74,62,72,68,63,100,83,51,30.05,29.98,29.90,10,7,2,10,4,17,0.00,3,,194
2013-8-31,87,78,69,72,70,66,100,77,55,29.91,29.87,29.81,10,10,10,10,6,17,0.00,2,,217